Simultaneous Nadir Overpasses (SNOs) Predictions

Prediction of SNOs between GOES-16 and NOAA-20 Satellite Orbit:

Table of predicted SNOs for the next 14.0 days since TLE Epoch: 8/28/2020
Index Date Time (GOES-16) GOES-16 Lat,Lon NOAA-20 Lat,Lon Distance(km) Time Diff (sec)
1 08/29/2020 06:31:59 -0.05, -75.19 0.21, -76.47 144.97 80
2 08/30/2020 06:13:14 -0.05, -75.18 -0.79, -71.93 371.33 80
3 08/31/2020 18:32:29 0.06, -75.19 -0.40, -77.23 233.00 80
4 09/01/2020 18:16:24 0.06, -75.19 0.60, -72.69 283.96 80
5 09/03/2020 06:38:11 -0.06, -75.20 0.54, -77.97 315.54 80
6 09/04/2020 06:19:26 -0.06, -75.20 -0.46, -73.43 201.86 80
7 09/05/2020 18:38:41 0.07, -75.22 -0.73, -78.73 401.11 80
8 09/06/2020 18:22:35 0.06, -75.23 0.27, -74.20 116.69 80
9 09/08/2020 06:44:23 -0.07, -75.24 0.87, -79.47 481.72 80
10 09/09/2020 06:22:57 -0.07, -75.25 -0.14, -74.94 36.09 80
